Weather in Yunyang

China     33°28′24″N   112°27′59″E
temp.,
°C
wind,
m/s
gust,
m/s
humid.,
%
clouds,
%
prec.,
mm/h
press.,
hPa
HPBL,
m
6 may, thu
thu623:00+16wsw234092 0.0 101435
02:00+16wsw2243100 0.0 101227
05:00+15wnw1250100 0.0 101112
08:00+18sw2250100 0.0 1011172
11:00+25ssw3338100 0.0 1011644
14:00+29s5530100 0.0 10081274
17:00+28ssw5636100 0.0 1007826
20:00+20sse367187 0.0 1010125
7 may, fri
fri723:00+18ne1184100 0.0 101216
02:00+16n1160100 0.0 101213
05:00+16nnw1137100 0.0 101313
08:00+18nnw0138100 0.0 1015123
11:00+22s1128100 0.0 1015652
14:00+24s3231100 0.0 10131145
17:00+23s5550100 0.0 1011795
20:00+18s2351100 0.0 101147
8 may, sat
sat823:00+16wnw225474 0.0 101117
02:00+16wnw223966 0.0 100918
05:00+15wsw11440 0.0 100711
08:00+20ssw11450 0.0 1008154
11:00+26s22380 0.0 1007519
14:00+31ssw44312 0.0 10031218
17:00+31ssw333112 0.0 10021650
20:00+23sse35580 0.0 100485
9 may, sun
sun923:00+20s22670 0.0 100521
02:00+18ssw22730 0.0 100421
05:00+17ssw12810 0.0 100320
08:00+22ssw23630 0.0 1004193
11:00+29s45435 0.0 1003728
14:00+32ssw66321 0.0 10001495
17:00+31ssw67375 0.0 9991311
20:00+23s365963 0.0 100097
10 may, mon
mon1023:00+22sw2263100 0.0 100124
02:00+20wsw22683 0.0 100024
05:00+19n117015 0.0 100011
08:00+24e235929 0.0 1002287
11:00+27ne665362 0.0 1004967
14:00+27ne5646100 0.1 1003983
17:00+28nne454179 0.1 10021356
20:00+24nne2251100 0.1 100419